GFSFLT2_con_3kmhel_060.txt.gz
Helicity
176 205 161 190 340 400 64 79 91 91 89 88 92 99 96 86 69 62 56 52 61 73 101 153 146 90 55 19 15 -19 -47 -29
213 277 280 311 289 282 57 167 126 129 121 131 101 101 100 82 66 55 49 40 59 66 97 147 183 130 77 45 5 -2 -39 -37
251 312 300 323 221 82 59 102 136 151 154 174 152 110 93 77 48 48 34 23 38 67 106 129 168 125 50 40 10 -37 -47 -50
359 358 402 378 146 74 158 175 130 139 176 163 148 122 82 48 48 37 33 25 35 52 75 87 104 76 28 44 18 -4 -21 -36
384 389 358 292 209 122 158 300 202 111 178 151 138 161 82 77 27 26 25 16 26 27 29 38 52 52 40 26 15 4 -14 -30
457 365 310 302 246 191 191 300 231 209 121 137 177 158 72 41 20 -0 21 -1 5 18 16 23 34 48 51 31 21 17 15 -0
297 307 312 287 299 360 274 297 334 211 141 145 172 152 72 98 -2 34 9 -1 10 10 11 3 25 49 49 42 30 34 37 15
352 425 302 377 393 274 424 406 260 206 160 116 165 127 200 55 21 23 -24 17 13 12 8 17 32 35 43 55 56 53 50 33
214 249 312 279 409 437 732 398 348 279 208 174 112 124 76 17 -7 -2 -7 19 12 15 29 33 48 29 42 52 75 70 55 53
241 257 297 329 292 391 353 410 519 481 212 196 55 30 42 -16 -20 -14 27 2 17 43 65 37 56 49 54 60 71 80 77 75
246 214 211 186 220 303 347 299 492 373 261 251 76 77 55 -10 14 32 -13 -18 -5 43 93 105 103 79 68 68 83 88 89 99
180 62 72 98 80 138 196 222 201 268 236 115 113 88 73 68 46 10 -4 -4 31 109 160 130 127 128 107 95 95 84 98 124
73 89 -1 12 9 -5 -44 -7 85 42 55 -75 40 30 25 20 -3 -26 34 116 103 146 170 140 124 155 177 145 125 117 118 123
23 4 31 23 38 3 -26 -7 -31 -46 -167 -105 -14 -22 -52 -48 -30 -12 53 122 100 149 196 182 146 211 202 197 167 178 189 177
6 -28 -11 10 -6 -21 -64 -95 -117 -190 -232 -195 -162 -123 -79 -45 -41 -10 4 73 117 139 196 239 205 201 219 246 234 197 222 224
5 -34 -14 -35 -47 -75 -106 -116 -170 -230 -224 -184 -149 -88 -37 -31 -9 9 21 75 139 173 196 229 258 224 229 228 308 324 222 252
15 -21 -28 -13 -31 -49 -69 -71 -117 -138 -132 -99 -99 -82 -49 -28 12 43 74 131 158 192 222 231 236 267 308 299 342 348 414 321
46 41 -2 28 15 -24 -29 -33 -56 -80 -84 -52 -62 -63 -69 -23 22 102 130 146 183 214 214 231 293 346 353 350 334 299 409 390
125 92 48 73 88 40 17 -4 -21 -22 -20 -32 -52 -41 -18 16 92 147 200 191 210 246 205 288 300 367 344 374 340 326 405 370
237 183 110 108 133 92 34 -4 -29 -22 -5 -1 17 21 55 100 148 212 271 194 259 182 275 320 336 337 359 350 347 410 360 363

GFSFLT2_con_3kmhel_066.txt.gz
Helicity
54 130 114 99 133 191 143 95 42 73 144 182 173 155 160 157 146 114 95 73 64 60 53 33 28 14 -1 1 10 15 -4 -13
126 176 195 276 365 420 161 25 67 192 145 203 215 164 128 137 125 116 109 88 64 53 40 29 28 1 -8 -15 -9 5 -11 -11
114 317 156 259 81 63 63 98 37 77 165 188 197 178 145 157 136 127 119 94 50 43 39 30 33 22 8 6 -13 -40 -26 -36
179 169 247 180 145 289 168 191 71 64 115 149 201 153 140 143 148 142 123 105 70 46 51 38 39 13 3 4 -26 -35 -35 -48
234 306 335 306 207 141 161 171 133 153 102 157 148 156 164 165 160 159 133 126 91 69 45 14 12 20 9 6 -17 -35 -48 -54
218 301 320 185 195 120 100 139 79 101 88 135 130 132 180 101 153 131 92 84 70 47 13 22 29 28 23 11 -1 -18 -44 -52
233 312 277 167 142 138 141 75 92 107 111 146 79 160 77 84 124 99 86 52 45 57 38 23 37 43 41 37 14 -10 -29 -43
190 226 338 228 157 182 138 54 83 70 62 -39 49 114 60 70 90 83 71 64 28 37 42 41 38 45 38 23 16 4 -13 -27
87 282 188 294 220 215 162 104 120 72 -8 55 74 96 67 80 104 78 57 54 64 80 52 58 48 35 34 22 23 14 8 -3
146 164 275 180 195 167 212 85 53 105 44 149 111 93 60 60 73 49 53 49 62 73 53 54 33 31 39 26 19 21 16 17
139 156 155 206 158 235 188 189 86 75 35 122 104 87 77 82 64 45 76 70 72 69 47 61 41 34 33 30 26 22 26 47
145 113 175 171 232 270 244 186 154 -36 8 136 107 89 64 84 83 55 165 61 56 79 71 67 57 45 51 40 35 38 42 47
135 118 72 190 198 283 276 208 106 113 135 256 142 89 117 138 199 183 53 46 66 75 86 75 83 73 84 61 51 48 50 64
96 92 87 71 71 183 211 118 280 333 309 228 143 93 247 126 105 58 64 65 84 85 102 97 100 120 105 101 66 68 94 111
121 83 81 96 60 14 162 209 322 339 328 154 114 226 159 103 82 88 61 86 90 92 82 122 122 131 163 119 81 67 86 98
117 82 78 78 90 69 55 51 41 121 150 140 160 227 173 84 51 55 51 56 9 57 79 122 174 158 167 152 178 168 146 113
114 91 65 65 75 37 24 28 3 -32 -13 33 43 -13 -44 -40 -0 -5 -5 20 34 48 116 159 175 202 245 236 254 240 236 237
126 124 91 71 46 31 12 25 -24 -40 -28 -19 -42 -75 -90 -102 -31 8 26 43 85 86 100 153 179 197 239 273 278 205 230 300
157 160 153 123 77 25 -3 -16 -15 -21 -45 -62 -88 -80 -114 -214 -120 -37 40 57 82 113 147 166 196 172 138 166 201 190 273 250
207 179 165 180 146 92 22 7 -11 -22 -42 -91 -125 -138 -137 -72 -95 -48 14 89 93 140 177 195 159 81 78 126 97 137 258 321

GFSFLT2_con_3kmhel_069.txt.gz
Helicity
33 52 115 154 132 181 211 212 211 252 193 141 225 199 165 140 107 93 62 73 64 49 49 34 30 34 36 30 30 9 6 1
81 37 108 120 124 155 208 247 251 203 183 200 296 229 193 140 105 82 72 52 54 45 33 24 23 12 15 19 18 0 3 2
39 77 135 180 377 306 446 411 322 150 86 172 284 205 156 131 92 78 65 68 46 37 30 25 28 26 13 12 -16 -17 -11 -9
98 178 238 228 405 385 228 190 142 215 96 137 192 183 170 163 99 79 64 58 46 36 36 35 17 5 5 -9 -8 -11 -17 -6
131 150 128 123 82 117 107 108 145 124 54 143 161 236 190 170 111 93 60 45 28 35 34 6 16 -5 5 -7 8 -15 -11 -10
96 185 208 167 135 130 140 213 172 64 38 119 208 219 199 169 120 69 86 10 23 6 -3 19 8 37 10 24 10 1 -10 -11
228 142 218 170 201 148 142 142 140 233 186 109 181 177 194 107 103 115 78 29 17 11 16 -6 36 28 23 24 14 5 -4 -4
240 155 249 229 174 177 148 140 8 61 158 118 137 167 115 93 124 106 79 49 25 18 2 14 22 19 24 32 19 8 -1 -9
192 108 184 174 266 147 77 118 41 118 172 190 204 165 117 95 95 73 60 42 57 36 29 27 44 22 35 30 28 16 3 -7
147 122 182 175 149 133 127 112 89 100 147 235 184 166 125 109 56 50 54 66 65 31 33 55 24 11 32 31 30 21 10 2
159 121 183 207 217 188 191 149 126 112 194 133 87 77 79 89 51 49 32 76 48 40 64 57 24 27 31 32 27 17 14 15
120 95 55 117 133 182 174 93 94 45 95 3 68 40 55 93 81 54 54 80 28 31 72 47 42 35 30 32 26 20 19 21
105 121 25 97 121 128 223 172 163 48 73 36 4 11 36 92 97 53 102 55 61 33 72 48 71 65 67 42 32 19 19 24
92 102 78 40 53 101 143 132 129 137 103 43 15 79 58 81 102 78 109 64 104 101 73 91 84 72 67 63 38 19 32 55
88 108 116 89 152 176 196 239 216 195 166 117 112 166 65 76 107 130 137 110 113 54 75 56 73 79 76 71 41 31 45 52
88 96 120 85 146 140 133 133 202 160 172 222 223 228 172 158 135 128 98 36 18 47 61 62 76 57 73 61 81 127 68 32
60 77 111 106 115 137 149 127 84 111 142 358 261 215 190 146 172 178 20 46 64 53 63 72 62 83 109 128 119 139 141 117
60 60 55 82 87 80 86 87 78 16 95 139 115 77 -18 -79 183 25 83 75 70 54 39 51 61 90 100 133 141 131 122 190
92 88 76 79 65 84 63 44 20 44 98 107 63 47 31 46 56 56 69 65 67 51 42 56 82 104 104 122 127 122 176 194
130 117 99 96 91 69 46 23 -16 -40 -22 2 33 78 44 70 -43 20 27 25 -2 -5 44 62 69 111 100 105 129 96 167 111

GFSFLT2_con_3kmhel_072.txt.gz
Helicity
98 84 85 121 67 71 88 224 270 238 245 195 158 165 185 154 132 98 110 117 66 62 43 41 53 43 49 15 -21 -12 26 23
108 91 83 117 142 147 137 119 221 260 243 186 253 204 239 205 171 144 115 100 68 49 41 42 33 34 43 23 -2 -24 30 23
41 42 64 110 157 172 159 161 218 254 185 167 264 181 138 113 131 111 103 80 70 63 52 61 54 54 42 -14 -42 36 20 33
55 9 -1 63 251 200 269 258 212 278 232 299 152 112 122 109 123 97 84 74 80 64 70 54 13 29 6 -10 22 22 36 36
87 168 168 245 262 515 330 422 547 396 284 152 138 119 172 140 127 93 71 60 57 45 46 7 21 14 -1 14 38 11 20 38
92 115 182 171 83 336 205 365 589 652 336 140 207 137 168 156 111 75 59 35 56 32 19 44 25 13 18 19 26 10 30 31
92 126 118 85 66 -46 -12 100 169 69 114 136 118 96 138 122 148 87 59 34 18 26 39 33 31 34 30 35 27 35 36 27
140 188 87 55 73 101 160 180 240 119 163 106 73 98 156 137 149 92 63 21 26 28 22 15 36 28 42 51 40 41 26 20
117 165 139 131 174 172 151 170 89 38 88 152 73 87 108 157 103 85 52 37 36 29 28 16 40 37 55 50 43 45 38 26
102 174 145 219 178 201 219 194 181 137 132 110 42 60 110 85 81 77 72 78 51 44 18 18 40 47 54 49 45 40 29 25
88 141 83 120 155 237 198 191 117 124 143 133 148 102 123 85 87 84 91 67 42 33 30 -0 40 48 51 36 39 38 31 23
94 133 84 77 119 153 131 130 63 121 140 90 166 146 121 38 50 80 87 55 34 19 25 18 36 60 37 38 36 29 19 24
102 134 92 133 93 130 123 76 81 120 97 176 120 174 -24 -19 -19 41 61 35 6 44 41 31 59 52 59 42 32 19 20 17
84 110 85 49 105 89 105 51 145 125 187 151 101 -31 -69 -0 83 63 32 63 63 57 69 71 76 76 58 48 38 33 23 23
53 91 76 87 77 53 167 241 207 231 200 146 27 -7 -9 -23 113 96 106 87 151 64 82 84 45 55 34 44 56 46 51 44
27 69 72 74 120 139 105 98 198 126 135 176 150 79 110 41 133 116 113 85 82 52 99 98 -1 20 39 36 36 69 45 43
26 35 72 86 101 113 103 56 18 163 162 126 65 215 209 134 89 60 65 142 118 98 127 117 -10 51 18 42 52 44 53 57
29 35 44 78 101 116 113 95 107 99 117 156 174 150 257 322 189 82 102 146 83 88 110 -12 35 42 43 45 44 45 38 59
40 40 49 70 98 121 108 82 120 130 168 69 116 135 190 280 150 155 176 178 91 112 11 8 60 50 43 45 49 69 76 83
75 55 55 69 59 77 97 82 83 62 87 72 82 164 167 159 54 69 34 20 11 -52 -53 42 48 28 18 50 64 75 89 145

GFSFLT2_con_3kmhel_075.txt.gz
Helicity
93 111 65 43 60 35 -5 0 100 217 220 238 191 159 111 105 110 134 153 127 107 92 85 55 73 43 10 11 44 90 36 44
83 64 63 61 68 46 96 47 56 113 206 234 187 150 97 119 151 115 126 110 83 72 81 61 76 34 2 4 27 12 48 35
57 58 51 70 93 129 77 23 49 105 162 238 150 176 96 87 123 128 130 99 79 94 94 76 78 58 -8 -59 -52 23 30 58
59 43 25 81 156 163 144 142 108 103 226 254 262 54 57 168 150 147 127 121 107 105 82 68 31 50 8 -7 10 17 57 52
34 38 49 95 126 143 227 247 246 393 430 413 242 96 61 121 166 140 140 115 99 82 46 20 38 33 37 14 32 12 42 47
75 104 119 118 134 172 305 332 305 350 454 333 226 211 125 91 127 122 133 100 85 58 22 27 27 31 23 30 18 21 43 46
90 125 124 112 138 132 335 272 242 276 258 277 236 220 125 92 139 142 108 90 63 48 43 40 43 37 39 21 29 52 51 35
100 99 197 65 64 33 56 253 440 542 275 213 76 233 110 90 111 103 97 74 61 31 50 49 39 47 42 33 47 41 38 32
119 111 95 87 46 32 65 104 123 168 239 88 136 297 117 71 87 66 67 71 59 55 44 51 40 35 37 52 57 50 47 49
105 92 171 99 77 136 132 131 164 186 73 75 72 37 92 105 133 120 107 121 78 63 55 54 45 27 51 50 55 56 54 43
121 117 165 148 120 232 176 137 107 72 168 166 213 164 87 123 136 118 132 138 89 59 61 47 38 24 62 49 62 59 48 41
140 115 149 129 148 142 195 224 176 131 124 206 202 78 28 92 102 141 130 105 81 58 56 45 34 19 39 49 59 51 42 41
134 132 135 71 73 149 149 177 164 99 57 71 61 2 14 55 30 104 74 78 81 100 80 59 48 22 47 53 53 25 23 26
123 102 101 96 56 81 135 92 131 119 83 92 -13 64 38 103 113 79 134 104 106 95 70 76 46 28 47 39 50 45 26 24
84 94 82 68 47 42 41 106 111 127 105 160 155 85 58 14 36 -11 112 112 98 58 69 51 66 47 19 68 70 51 49 58
87 79 79 67 82 112 153 115 224 138 140 158 268 225 201 100 35 28 79 124 111 93 83 91 83 110 95 54 47 62 41 68
70 86 86 73 93 144 169 183 125 211 179 193 276 219 178 168 -103 54 83 122 139 127 83 130 98 139 146 107 5 12 48 56
63 94 55 83 103 131 127 172 161 210 219 167 247 240 234 121 17 58 107 149 130 107 69 68 136 119 113 104 55 49 32 57
72 77 68 107 82 101 110 138 204 209 211 186 211 190 167 196 170 157 112 144 49 52 90 114 132 184 35 66 60 63 57 50
74 54 48 108 86 76 84 95 111 161 185 212 172 177 167 279 201 211 214 236 27 -31 93 57 43 14 -57 -19 51 66 80 77

GFSFLT2_con_3kmhel_081.txt.gz
Helicity
121 111 90 82 87 86 106 134 135 234 283 240 -14 95 146 148 110 140 141 122 72 56 78 62 97 110 132 188 202 130 76 71
161 95 77 79 81 122 135 97 99 111 156 331 90 148 170 165 165 160 132 110 84 84 78 85 72 101 171 200 150 107 70 104
91 81 48 51 88 115 95 107 111 114 15 136 111 222 219 201 158 139 110 118 109 74 77 94 99 146 194 228 147 80 81 69
65 50 43 62 93 83 127 100 68 -79 155 94 158 252 261 207 164 145 104 121 101 79 87 110 122 173 169 202 146 98 95 63
59 56 79 102 107 92 102 127 108 61 133 295 218 285 249 236 210 230 164 123 134 121 135 140 111 176 177 192 169 112 90 64
107 156 147 126 102 90 77 123 126 46 117 199 329 334 247 294 279 248 154 125 149 126 175 98 128 196 194 191 149 87 62 69
188 190 176 147 137 99 98 143 155 82 68 180 188 237 173 219 177 147 101 94 88 145 112 78 186 184 171 133 140 84 66 96
194 215 203 175 131 114 116 185 236 254 222 413 427 392 214 219 219 171 77 51 35 106 125 68 157 147 137 146 138 90 64 88
214 232 228 168 140 113 93 102 197 223 268 198 286 303 158 185 212 129 76 37 64 91 129 94 142 95 118 120 91 59 61 96
229 270 250 193 148 126 55 83 102 222 310 318 325 262 171 181 116 100 71 100 39 114 110 122 132 117 141 119 88 76 64 76
192 219 261 258 198 107 54 87 151 186 272 231 172 200 194 178 210 199 127 104 81 43 120 130 106 108 121 110 101 104 71 75
205 185 258 301 227 123 64 79 97 115 156 117 135 151 166 171 202 250 97 107 77 58 92 121 91 88 92 91 70 94 92 82
202 190 210 294 253 146 104 51 93 110 132 110 105 156 72 140 165 306 52 83 90 77 121 120 139 125 128 109 116 103 72 105
223 169 183 220 214 109 73 98 40 43 43 -26 -45 -64 -5 28 191 339 81 79 99 119 164 229 159 147 133 161 161 149 93 56
224 165 158 179 186 148 94 73 119 103 52 -12 -49 24 35 103 205 106 118 74 134 106 181 193 193 164 158 180 199 120 123 87
222 203 140 145 181 167 164 173 147 137 64 51 56 41 44 74 150 38 35 31 92 63 65 110 151 124 246 179 134 132 175 157
240 202 147 142 173 184 177 152 118 101 94 64 68 65 119 91 84 76 17 77 77 105 122 135 169 175 206 156 100 114 133 214
271 198 164 139 155 199 182 186 182 168 187 151 87 47 13 90 110 90 113 115 96 120 146 140 167 195 138 137 119 138 143 178
297 235 179 158 165 165 206 193 204 196 219 190 149 36 -11 -1 86 159 143 172 171 137 152 170 224 211 151 104 143 154 200 195
281 273 198 162 171 177 171 198 198 207 231 210 202 140 55 82 96 159 214 196 216 160 188 167 201 225 181 130 172 189 217 242

GFSFLT2_con_3kmhel_084.txt.gz
Helicity
180 146 145 153 128 117 97 119 116 125 215 242 134 130 -3 33 76 102 107 89 58 98 130 155 169 183 113 125 113 130 129 107
164 158 143 127 100 67 71 114 141 158 214 207 186 177 26 6 114 116 109 86 91 117 132 166 190 175 130 132 104 104 118 125
124 141 106 105 85 104 90 141 159 117 194 139 249 124 64 35 112 135 110 94 117 124 132 199 210 160 141 130 99 60 101 109
86 117 125 98 83 115 128 152 112 76 110 344 234 137 71 100 159 183 114 113 115 117 138 197 210 217 166 128 83 55 85 90
77 125 147 121 100 101 103 99 125 110 63 99 9 101 141 212 190 133 127 148 129 126 139 201 210 189 128 112 100 43 55 63
91 123 153 142 145 111 118 89 100 82 63 101 221 240 212 223 186 144 150 151 139 113 127 193 202 155 142 140 96 64 61 64
113 151 168 168 176 157 151 129 90 103 90 153 241 232 239 185 173 159 168 151 134 127 129 180 217 157 96 136 116 97 81 85
149 146 174 173 165 166 167 138 113 77 84 173 197 209 215 171 174 167 173 148 112 115 104 169 263 171 126 122 110 79 76 88
195 172 186 170 158 147 165 162 132 98 122 109 202 185 207 174 169 158 175 135 110 99 113 220 287 164 104 137 124 75 68 86
225 198 201 184 160 159 154 143 175 120 184 205 198 237 227 211 179 192 202 162 120 98 135 248 210 192 144 124 114 70 75 78
241 217 215 203 157 152 116 53 124 132 105 212 242 272 259 257 212 237 166 143 91 84 167 215 156 190 137 154 119 90 61 61
249 214 221 214 181 164 101 53 64 96 114 168 230 230 234 179 171 218 137 103 76 89 121 126 128 174 177 129 104 82 88 43
263 252 229 271 192 185 105 59 51 91 122 137 211 224 198 176 157 195 170 102 108 139 148 93 145 178 237 181 89 83 73 64
275 260 246 236 214 155 23 51 50 44 107 48 98 150 137 197 163 213 256 234 145 137 140 193 186 156 201 213 176 113 20 64
269 255 234 205 192 155 109 34 87 81 59 61 37 55 63 124 109 186 209 208 207 75 112 115 159 134 142 190 211 160 207 131
260 228 209 192 187 167 159 119 137 61 77 23 6 37 125 69 98 89 136 118 75 42 55 108 210 147 192 172 149 159 229 149
263 199 186 170 184 173 164 129 73 73 72 15 3 -53 -10 79 95 140 112 125 149 -90 -41 52 131 163 233 246 239 216 228 164
249 205 186 157 169 179 193 170 142 118 77 25 -31 -21 -60 33 157 138 129 135 76 52 -10 26 131 172 188 191 261 263 213 211
241 202 197 161 156 159 191 186 186 168 128 49 59 22 -16 -18 74 97 143 146 55 2 68 141 176 198 185 197 218 237 206 167
223 197 211 182 173 160 159 183 171 148 155 123 100 83 19 21 -0 48 66 105 160 190 175 161 171 182 188 195 201 184 231 206

GFSFLT2_con_3kmhel_090.txt.gz
Helicity
150 120 145 141 111 186 207 242 268 260 275 322 320 315 195 142 123 202 231 116 131 208 252 208 201 187 171 169 154 143 170 156
190 171 176 170 189 216 203 219 239 200 196 191 200 198 139 76 145 124 151 128 140 227 232 182 163 163 154 142 151 170 186 186
181 173 154 131 181 185 196 214 179 151 109 73 85 137 128 146 167 138 116 35 135 232 198 165 156 149 142 140 165 169 186 152
164 143 146 111 136 155 179 160 148 89 92 102 144 152 157 165 127 117 117 22 153 222 187 154 187 158 141 145 143 141 146 115
133 111 137 141 143 142 153 171 149 143 146 141 167 224 161 132 144 223 197 82 218 219 222 183 145 163 159 146 148 131 106 88
118 107 121 120 131 146 147 165 158 154 132 169 138 209 179 157 184 160 145 137 248 289 260 187 134 119 157 145 111 109 89 81
120 139 98 138 151 160 168 170 159 133 116 124 168 158 204 180 240 191 304 150 276 278 226 193 167 179 126 138 105 79 74 59
147 140 125 162 164 157 185 183 177 172 141 140 135 138 236 216 273 329 264 171 276 277 226 194 173 161 136 122 96 54 48 71
176 134 154 170 161 146 181 176 188 168 148 128 107 89 135 287 279 263 236 174 311 310 274 239 203 160 139 106 93 50 49 64
176 144 161 191 181 171 189 172 182 192 148 105 76 10 83 107 299 246 222 230 280 277 255 229 197 158 136 120 109 88 95 74
216 176 185 199 185 167 210 190 182 151 118 112 108 278 310 295 200 173 189 197 243 271 269 247 203 150 136 130 125 75 100 75
262 237 239 249 210 156 201 200 175 103 124 94 115 194 198 204 172 189 203 244 254 273 277 265 194 194 171 167 147 90 112 83
306 307 256 265 244 195 177 198 116 52 85 98 107 92 190 194 173 188 196 217 234 284 326 271 262 260 268 244 181 109 124 103
263 280 299 245 239 163 182 213 106 67 54 18 56 156 177 194 142 154 190 247 196 238 260 310 272 217 244 267 176 133 114 102
270 250 290 232 210 163 212 235 130 71 38 46 65 172 165 195 189 191 232 238 193 181 266 294 301 214 187 219 254 172 152 111
255 214 269 211 204 173 182 191 139 75 58 90 122 110 205 234 300 273 267 244 193 162 219 266 312 258 201 268 193 110 164 154
282 213 213 216 210 164 168 155 94 126 100 95 141 81 151 310 286 272 270 208 191 199 150 195 228 252 287 243 224 199 179 161
264 233 184 207 190 144 161 165 136 108 91 97 99 82 192 227 337 231 207 149 154 152 233 186 132 172 188 225 282 292 270 204
241 239 191 211 165 129 121 144 139 110 75 68 87 116 107 175 206 198 190 234 166 233 101 169 224 192 207 150 166 188 193 183
242 229 220 219 154 119 85 118 116 91 90 59 49 75 107 202 153 145 187 216 103 137 95 112 210 168 129 113 155 154 209 248

GFSFLT2_con_3kmhel_093.txt.gz
Helicity
118 124 120 133 160 189 152 148 188 218 230 253 289 370 402 214 178 94 65 100 182 187 182 195 200 210 200 181 163 128 81 76
133 127 93 114 168 229 174 141 174 214 235 274 305 305 302 272 178 161 125 148 244 232 190 182 194 191 192 167 154 111 69 67
148 140 116 118 186 204 183 141 179 219 215 250 252 230 206 92 62 41 107 171 218 150 186 207 210 178 163 148 115 77 66 56
148 141 115 104 133 202 184 135 153 188 199 198 179 159 99 48 40 85 75 121 227 100 161 224 151 125 115 113 81 76 58 47
137 147 115 113 102 183 209 153 133 139 130 130 109 66 60 75 109 89 89 166 208 137 195 147 125 95 88 72 68 50 50 41
140 143 154 133 115 125 183 171 141 112 65 53 70 83 67 106 154 165 189 241 232 192 153 132 105 91 59 76 55 59 54 33
159 139 160 143 140 128 157 163 152 124 107 83 88 107 91 113 179 202 283 297 266 178 148 131 90 81 66 41 58 47 61 30
182 161 174 154 148 138 139 168 166 161 157 122 94 96 93 140 175 238 244 229 199 167 118 124 109 86 83 46 39 45 41 34
189 188 189 168 140 125 138 118 162 174 177 142 113 89 87 190 226 284 276 268 240 206 119 126 113 97 80 57 45 40 24 30
205 226 200 190 146 141 145 118 141 149 166 181 127 114 129 209 280 326 314 379 227 181 128 117 117 103 91 82 74 51 35 27
239 242 224 224 174 163 154 137 131 136 157 146 92 113 83 172 222 385 349 309 204 160 160 127 122 92 93 99 70 52 36 28
214 248 258 241 213 188 157 143 146 160 124 77 109 77 51 151 219 421 334 229 164 157 160 151 99 115 115 115 93 69 53 41
206 299 295 330 278 208 160 164 146 136 85 63 127 113 283 355 447 314 252 209 163 190 244 175 144 135 161 143 128 100 71 45
178 254 318 326 270 202 161 166 114 113 79 89 121 139 129 120 191 185 151 198 216 245 239 207 174 134 137 140 168 143 81 45
197 244 302 315 289 211 157 156 111 102 71 33 34 81 79 124 105 122 167 156 189 214 231 223 222 155 120 203 253 200 123 78
132 184 273 282 296 215 166 163 113 86 57 44 59 81 65 112 173 131 150 173 199 240 235 217 205 179 161 180 152 115 148 132
198 196 181 235 267 180 160 147 93 105 85 64 80 100 111 85 163 153 204 183 225 260 255 217 186 191 227 245 210 188 172 145
226 216 200 172 212 160 144 148 104 104 117 93 89 112 57 120 210 180 259 265 244 350 239 238 239 153 178 190 234 230 151 165
199 227 223 187 172 152 148 118 89 87 102 96 73 75 73 114 119 224 228 192 254 248 141 136 113 175 145 124 154 161 154 146
214 217 255 198 161 117 116 93 68 60 73 86 63 46 57 74 114 140 274 178 232 187 100 109 100 156 116 88 87 130 147 133

GFSFLT2_con_3kmhel_096.txt.gz
Helicity
122 115 94 78 95 91 68 73 73 66 107 142 198 238 261 259 217 141 115 186 73 77 110 170 183 175 167 142 100 24 53 59
145 130 99 96 98 106 99 91 88 124 146 188 220 260 247 227 254 136 139 101 106 85 134 137 195 182 164 131 89 66 37 35
150 126 105 90 110 116 129 105 85 126 179 232 212 128 156 192 143 141 153 111 127 170 171 139 198 171 148 105 51 40 57 51
142 120 111 102 104 89 84 78 82 83 103 127 106 109 125 127 122 109 70 72 135 118 86 114 125 103 96 66 32 64 55 51
109 114 109 117 119 101 87 96 97 129 131 127 127 138 145 135 60 55 48 86 128 185 159 78 70 98 86 47 64 45 56 54
99 113 129 119 131 133 97 110 111 147 162 162 147 126 114 88 56 22 100 155 129 144 130 85 67 68 61 61 46 43 47 66
122 126 126 118 127 130 129 91 99 81 141 141 145 143 109 81 47 83 162 198 168 144 113 64 86 76 74 56 52 48 56 60
126 141 127 136 132 145 144 121 89 83 108 114 97 92 119 93 68 124 199 193 197 196 142 73 73 77 75 50 39 38 31 41
116 157 145 164 142 144 126 126 102 83 116 119 97 76 82 88 115 143 231 282 147 255 114 82 71 79 68 59 51 36 42 53
116 156 170 167 147 175 149 121 129 86 99 121 90 66 54 78 96 183 268 271 180 236 165 91 66 76 62 70 85 59 62 64
123 142 180 178 154 177 156 134 147 105 115 130 107 100 76 110 155 233 332 321 231 113 111 88 81 62 78 85 100 72 57 53
104 137 182 212 210 203 173 151 140 127 143 135 79 85 92 117 150 227 368 313 293 242 195 91 65 70 90 117 114 73 60 80
99 150 189 280 296 277 224 176 162 152 151 94 31 116 181 95 111 231 303 317 298 217 112 81 100 117 126 178 173 127 103 79
86 132 190 227 236 200 179 158 140 110 128 59 57 126 108 61 106 373 332 281 265 178 82 95 156 127 165 149 202 172 128 63
69 121 177 169 185 213 183 136 141 120 127 69 115 185 162 194 225 310 247 349 222 96 66 104 154 124 64 134 194 177 116 80
49 146 150 147 188 211 173 146 135 84 128 39 111 126 82 93 197 363 350 267 117 105 138 126 145 123 99 101 93 110 101 155
43 153 122 158 173 182 153 101 96 88 136 86 73 106 87 93 61 83 136 135 116 126 132 139 101 130 146 180 155 122 63 87
73 145 123 143 161 169 139 105 100 77 151 96 98 113 152 79 37 108 130 133 125 153 188 209 194 166 114 123 109 170 164 146
101 145 119 131 152 153 143 106 93 44 134 119 114 114 149 105 68 193 144 159 144 183 211 221 241 248 112 70 36 59 107 88
106 104 98 117 152 155 151 107 97 25 103 109 87 83 109 45 60 119 140 127 204 180 201 173 128 125 55 29 37 59 52 80

GFSFLT2_con_3kmhel_102.txt.gz
Helicity
91 79 71 72 52 68 74 62 46 38 19 5 28 30 49 54 119 176 145 143 108 103 139 177 173 51 34 23 55 103 85 117
98 84 74 71 51 56 72 73 58 46 28 28 40 51 74 156 161 168 141 139 131 130 153 158 154 87 85 40 51 89 77 91
130 97 65 63 68 65 74 80 81 68 50 43 56 49 80 156 168 157 159 159 163 118 117 134 111 65 85 63 39 68 121 146
138 120 92 77 114 108 71 81 73 69 64 55 54 68 83 129 199 183 178 164 134 120 136 154 169 115 94 69 51 109 147 173
145 112 111 92 101 90 75 72 76 81 71 61 73 73 76 142 212 174 171 125 129 132 157 141 145 130 55 46 31 63 114 67
141 131 121 77 148 101 65 70 104 86 74 81 79 80 103 137 169 153 168 172 149 148 171 152 158 104 -8 24 27 39 150 144
183 185 139 128 116 138 105 136 153 118 106 110 96 97 103 113 140 145 147 137 149 159 184 179 133 120 23 43 11 24 133 152
263 211 170 123 142 175 165 147 138 145 128 119 109 122 121 113 149 161 139 94 133 177 208 159 101 110 12 32 36 24 92 85
298 261 236 135 123 176 187 171 90 139 144 130 137 154 186 139 115 144 123 120 163 187 176 150 143 143 77 19 71 125 112 125
336 322 263 154 107 199 230 154 115 177 148 154 123 143 185 189 173 153 116 162 179 154 178 172 155 172 100 41 146 149 199 87
332 330 263 163 134 204 245 162 157 125 167 184 152 144 150 181 206 181 117 173 179 171 187 166 160 183 93 49 114 141 123 165
283 329 293 163 181 224 260 249 225 155 199 221 173 157 156 168 181 174 156 206 207 193 166 194 180 152 84 35 162 124 120 152
155 278 331 254 214 230 262 293 284 202 151 152 236 214 174 168 209 147 169 238 232 194 185 221 194 191 182 207 259 237 173 218
162 182 315 336 264 226 253 246 217 186 156 167 155 161 178 208 224 181 187 212 225 192 192 245 208 207 232 297 284 264 204 145
191 242 342 366 285 261 246 201 200 183 170 157 170 193 219 240 219 219 216 284 294 212 208 220 210 167 154 347 358 241 208 158
99 175 232 378 425 304 202 234 254 215 210 182 162 253 296 252 232 231 209 230 357 236 257 236 250 167 173 195 258 244 220 165
120 117 115 368 457 328 178 151 169 135 159 151 271 298 268 201 201 184 183 276 231 211 248 267 260 226 174 208 177 141 111 201
236 125 152 334 386 292 177 130 185 139 150 247 300 242 236 199 173 148 115 212 199 185 166 191 238 217 242 236 152 132 113 157
255 187 147 342 324 243 164 197 130 144 205 266 265 272 261 212 173 152 182 136 219 239 209 155 246 229 236 172 135 122 168 181
149 284 140 303 282 244 144 197 144 200 244 228 269 234 208 210 201 140 166 168 150 187 153 304 218 174 108 137 155 214 218 241

GFSFLT2_con_3kmhel_105.txt.gz
Helicity
105 80 81 81 78 74 82 89 100 80 47 28 35 39 44 60 120 123 105 120 132 87 100 18 -18 57 42 46 58 98 105 107
107 89 98 89 67 77 88 96 104 87 61 38 33 42 56 72 114 108 86 89 101 54 57 67 82 126 99 122 91 86 120 121
119 101 90 92 70 57 89 99 94 95 78 61 68 81 86 105 113 123 98 88 105 93 82 45 48 55 57 101 116 106 125 105
135 99 92 116 78 64 87 80 81 82 89 101 89 110 113 131 118 137 127 124 134 100 68 56 74 7 91 91 145 105 137 135
153 117 98 139 128 86 84 74 74 74 96 119 119 125 160 150 167 192 175 180 144 122 100 77 71 98 119 183 206 123 176 134
186 136 109 148 176 129 86 80 82 86 91 128 154 157 193 186 188 190 183 159 152 138 119 86 88 88 86 134 138 109 142 148
193 143 114 127 199 145 110 86 79 90 117 124 153 163 176 199 192 174 159 164 157 161 141 115 105 97 91 61 79 89 144 124
240 192 148 147 196 163 141 129 112 123 139 143 161 191 180 186 195 170 161 172 158 164 157 150 140 107 82 60 119 98 154 157
338 265 180 159 210 194 224 201 197 185 177 176 155 199 209 193 181 200 175 147 135 163 180 194 133 74 71 85 89 105 161 181
332 297 236 214 242 264 244 226 211 191 171 165 162 196 227 240 210 219 178 159 156 194 187 205 133 123 79 99 125 87 161 128
346 320 316 258 278 258 269 229 196 187 179 164 149 183 230 252 245 202 204 224 235 237 199 187 191 158 119 156 140 108 153 100
344 366 358 318 285 293 251 217 195 229 208 189 157 149 183 231 243 223 246 298 238 224 211 174 163 156 173 120 140 97 132 98
308 378 330 367 284 347 306 282 232 257 232 221 198 178 178 193 214 224 251 298 235 206 220 202 183 171 229 231 170 152 115 111
285 363 348 294 268 298 356 356 296 227 251 208 216 227 203 191 236 228 249 253 236 231 247 242 221 205 214 211 222 198 256 201
169 243 266 287 285 354 434 399 282 232 187 186 267 241 220 245 275 268 253 224 226 230 277 301 272 194 200 339 358 290 303 250
427 166 231 269 345 378 376 377 285 239 205 188 181 175 254 304 304 272 241 220 240 261 282 307 342 192 233 355 463 415 253 208
434 437 168 279 303 309 349 320 223 250 220 163 164 205 331 369 330 276 241 232 233 259 282 280 472 211 241 379 393 274 252 231
352 401 425 305 308 341 323 307 260 238 188 160 217 296 369 354 303 246 220 229 230 193 284 410 220 289 278 310 405 287 244 272
158 210 352 377 258 373 339 292 283 228 220 167 248 291 286 273 248 175 178 196 197 202 361 213 213 246 284 373 300 301 192 177
142 115 152 311 273 350 340 278 285 236 194 212 239 255 246 276 218 146 142 148 160 133 138 208 231 270 289 258 313 241 188 141